Weather History for KRUT - February, 2012

Change the Weather History Date:

Sunday, February 26, 2012

  Actual Average Record
Temperature  
Mean Temperature 22 °F -  
Max Temperature 28 °F - 65 °F (1957)
Min Temperature 16 °F - -14 °F (1993)
Degree Days  
Heating Degree Days 43    
Month to date heating degree days 931  
Since 1 July heating degree days 4379  
Cooling Degree Days 0    
Month to date cooling degree days 0  
Year to date cooling degree days 0  
Moisture  
Dew Point 3 °F    
Average Humidity 45    
Maximum Humidity 59    
Minimum Humidity 31    
Precipitation  
Precipitation 0.00 in - 0.79 in (1979)
Month to date precipitation 0.24  
Year to date precipitation 1.47  
Sea Level Pressure  
Sea Level Pressure 30.23 in    
Wind  
Wind Speed 7 mph (NW)    
Max Wind Speed 13 mph    
Max Gust Speed 22 mph    
Visibility 10 miles    
Events      
T = Trace of Precipitation, MM = Missing Value Source: NWS Daily Summary

Daily Weather History Graph

Daily Weather History Graph

Search for Another Location

Airport or City:

Trip Planner

Search our weather history database for the weather conditions in past years. The results will help you decide how hot, cold, wet, or windy it might be!

Date:

Astronomy

Feb. 26, 2012 Rise Set
Actual Time 6:34 AM EST 5:36 PM EST
Civil Twilight 6:05 AM EST 6:04 PM EST
Nautical Twilight 5:32 AM EST 6:38 PM EST
Astronomical Twilight 4:58 AM EST 7:11 PM EST
Moon 8:17 AM EST (2/26) 10:42 PM EST (2/26)
Length of Visible Light 11h 59m
Length of Day
11h 02m
Waxing Crescent, 20% of the Moon is Illuminated
Feb 26
Waxing Crescent
Feb 29
First Quarter
Mar 8
Full
Mar 14
Last Quarter
Mar 22
New

Hourly Weather History & Observations

Time (EST) Temp. Windchill Dew Point Humidity Pressure Visibility Wind Dir Wind Speed Gust Speed Precip Events Conditions
12:15 AM 21.2 °F 8.3 °F 8.6 °F 58% 29.89 in 10.0 mi WNW 13.8 mph 20.7 mph N/A   Overcast
12:35 AM 19.4 °F 8.6 °F 8.6 °F 63% 29.91 in 10.0 mi WNW 9.2 mph 18.4 mph N/A   Mostly Cloudy
12:55 AM 19.4 °F 10.4 °F 6.8 °F 58% 29.92 in 10.0 mi NNW 6.9 mph - N/A   Clear
1:15 AM 19.4 °F 9.5 °F 6.8 °F 58% 29.94 in 10.0 mi North 8.1 mph - N/A   Mostly Cloudy
1:55 AM 19.4 °F 6.6 °F 3.2 °F 49% 29.97 in 10.0 mi NW 12.7 mph 17.3 mph N/A   Partly Cloudy
2:15 AM 17.6 °F 6.4 °F 3.2 °F 53% 29.98 in 10.0 mi NW 9.2 mph - N/A   Clear
2:35 AM - - - N/A% 29.99 in 10.0 mi NW 6.9 mph - N/A   Clear
2:55 AM 17.6 °F 9.3 °F 5.0 °F 58% 30.01 in 10.0 mi NNW 5.8 mph - N/A   Clear
3:15 AM - - - N/A% 30.02 in 10.0 mi NNW 8.1 mph 16.1 mph N/A   Clear
3:35 AM 17.6 °F 10.7 °F 3.2 °F 53% 30.05 in 10.0 mi NNW 4.6 mph 16.1 mph N/A   Clear
3:55 AM 17.6 °F 8.2 °F 3.2 °F 53% 30.07 in 10.0 mi NW 6.9 mph - N/A   Clear
4:55 AM 15.8 °F 5.1 °F 3.2 °F 58% 30.12 in 10.0 mi West 8.1 mph 19.6 mph N/A   Clear
5:15 AM 15.8 °F 7.2 °F 3.2 °F 58% 30.13 in 10.0 mi WNW 5.8 mph - N/A   Clear
5:35 AM 15.8 °F 5.1 °F 3.2 °F 58% 30.14 in 10.0 mi WNW 8.1 mph 16.1 mph N/A   Clear
5:55 AM 15.8 °F 8.6 °F 3.2 °F 58% 30.16 in 10.0 mi NNE 4.6 mph - N/A   Clear
6:15 AM 15.8 °F 8.6 °F 3.2 °F 58% 30.17 in 10.0 mi NNW 4.6 mph - N/A   Clear
6:35 AM 15.8 °F 8.6 °F 3.2 °F 58% 30.19 in 10.0 mi North 4.6 mph - N/A   Clear
6:55 AM 15.8 °F 10.2 °F 3.2 °F 58% 30.21 in 10.0 mi NNW 3.5 mph - N/A   Clear
7:15 AM 15.8 °F 7.2 °F 3.2 °F 58% 30.22 in 10.0 mi NW 5.8 mph - N/A   Clear
7:35 AM 15.8 °F 7.2 °F 3.2 °F 58% 30.23 in 10.0 mi NW 5.8 mph - N/A   Clear
8:35 AM 17.6 °F 8.2 °F 3.2 °F 53% 30.25 in 10.0 mi WNW 6.9 mph - N/A   Clear
8:55 AM 17.6 °F 6.4 °F 3.2 °F 53% 30.26 in 10.0 mi WNW 9.2 mph - N/A   Clear
9:15 AM 19.4 °F 7.9 °F 3.2 °F 49% 30.26 in 10.0 mi WNW 10.4 mph - N/A   Clear
10:15 AM - - - N/A% 30.26 in 10.0 mi West 8.1 mph - N/A   Clear
10:35 AM - - - N/A% 30.27 in 10.0 mi West 8.1 mph - N/A   Clear
11:35 AM 24.8 °F 16.1 °F 1.4 °F 36% 30.29 in 10.0 mi NNW 8.1 mph 16.1 mph N/A   Clear
11:55 AM 24.8 °F 14.0 °F 1.4 °F 36% 30.29 in 10.0 mi WNW 11.5 mph - N/A   Clear
12:15 PM 26.6 °F 15.2 °F 1.4 °F 34% 30.29 in 10.0 mi WNW 13.8 mph - N/A   Clear
12:35 PM 26.6 °F 16.2 °F -0.4 °F 31% 30.29 in 10.0 mi West 11.5 mph 17.3 mph N/A   Clear
12:55 PM - - - N/A% 30.28 in 10.0 mi WNW 6.9 mph 16.1 mph N/A   Clear
1:15 PM 28.4 °F 20.4 °F -0.4 °F 29% 30.28 in 10.0 mi NW 8.1 mph 18.4 mph N/A   Clear
1:35 PM 28.4 °F 19.7 °F -0.4 °F 29% 30.28 in 10.0 mi WNW 9.2 mph 16.1 mph N/A   Clear
1:55 PM 28.4 °F 19.7 °F 1.4 °F 31% 30.27 in 10.0 mi WNW 9.2 mph 17.3 mph N/A   Clear
2:15 PM 28.4 °F 24.6 °F -0.4 °F 29% 30.28 in 10.0 mi WNW 3.5 mph - N/A   Clear
2:55 PM - - - N/A% 30.29 in 10.0 mi West 12.7 mph 18.4 mph N/A   Clear
3:15 PM - - - N/A% 30.30 in 10.0 mi West 11.5 mph 16.1 mph N/A   Clear
3:35 PM - - - N/A% 30.29 in 10.0 mi NW 9.2 mph 16.1 mph N/A   Clear
3:55 PM - - - N/A% 30.30 in 10.0 mi NW 8.1 mph - N/A   Clear
4:15 PM - - - N/A% 30.31 in 10.0 mi NNW 9.2 mph - N/A   Clear
4:35 PM - - - N/A% 30.31 in 10.0 mi WNW 10.4 mph - N/A   Clear
4:55 PM - - - N/A% 30.32 in 10.0 mi NNW 10.4 mph 17.3 mph N/A   Clear
5:15 PM - - - N/A% 30.32 in 10.0 mi North 8.1 mph - N/A   Clear
5:55 PM 26.6 °F 20.0 °F 3.2 °F 37% 30.36 in 10.0 mi North 5.8 mph - N/A   Clear
6:15 PM 26.6 °F 19.1 °F 3.2 °F 37% 30.35 in 10.0 mi NNE 6.9 mph - N/A   Clear
6:35 PM 26.6 °F 20.0 °F 3.2 °F 37% 30.36 in 10.0 mi North 5.8 mph - N/A   Partly Cloudy
6:55 PM 26.6 °F 20.0 °F 3.2 °F 37% 30.36 in 10.0 mi NNW 5.8 mph - N/A   Partly Cloudy
7:15 PM 26.6 °F 22.6 °F 3.2 °F 37% 30.37 in 10.0 mi NNW 3.5 mph - N/A   Clear
7:35 PM 24.8 °F 17.9 °F 3.2 °F 40% 30.37 in 10.0 mi NNW 5.8 mph - N/A   Clear
8:15 PM 24.8 °F 19.1 °F 3.2 °F 40% 30.39 in 10.0 mi NNW 4.6 mph - N/A   Clear
8:35 PM 24.8 °F - 5.0 °F 43% 30.38 in 10.0 mi Calm Calm - N/A   Clear
8:55 PM 24.8 °F - 5.0 °F 43% 30.39 in 10.0 mi Calm Calm - N/A   Mostly Cloudy
9:15 PM 24.8 °F - 3.2 °F 40% 30.39 in 10.0 mi Calm Calm - N/A   Scattered Clouds
9:35 PM 24.8 °F - 3.2 °F 40% 30.39 in 10.0 mi Calm Calm - N/A   Scattered Clouds
9:55 PM 23.0 °F - 3.2 °F 43% 30.39 in 10.0 mi North - - N/A   Partly Cloudy
10:15 PM 23.0 °F 18.4 °F 5.0 °F 46% 30.40 in 10.0 mi NNE 3.5 mph - N/A   Partly Cloudy
10:55 PM - - - N/A% 30.38 in 10.0 mi Calm Calm - N/A   Clear
11:15 PM 19.4 °F 12.8 °F 8.6 °F 63% 30.39 in 10.0 mi SE 4.6 mph - N/A   Clear
11:35 PM 19.4 °F 11.5 °F 8.6 °F 63% 30.38 in 10.0 mi ESE 5.8 mph - N/A   Clear
11:55 PM 19.4 °F 11.5 °F 6.8 °F 58% 30.39 in 10.0 mi ESE 5.8 mph - N/A   Clear